{"data":{"norad_id":66564,"intl_designator":"2025-268H","name":"STARLINK-35358","alt_names":[],"object_type":"PAYLOAD","status":"ACTIVE","operator":null,"country":"US","launch_date":"2025-11-21","launch_site_code":"AFETR","launch_vehicle":null,"mission":null,"orbit_class":"UNKNOWN","rcs_meters":null,"size_class":null,"mass_kg":null,"dimensions":null,"purposes":["comms"],"wikipedia_slug":null,"has_3d_model":false,"image_url":null,"decayed_at":null,"tle_current":{"epoch":"2026-09-20T11:45:09.378432Z","epoch_age_seconds":90099,"freshness":"FRESH","line1":"1 66564U 25268H   26263.48969188  .00009502  00000+0  35433-3 0  9998","line2":"2 66564  43.0008 326.7819 0001127 283.0337  77.0389 15.27584702 47755","mean_motion":15.27584702,"eccentricity":0.0001127,"inclination_deg":43.0008,"raan_deg":326.7819,"arg_perigee_deg":283.0337,"mean_anomaly_deg":77.0389,"bstar":0.00035433,"rev_number":4775,"period_min":94.266458554781,"perigee_km":482.26176250996,"apogee_km":483.8082706825,"semimajor_km":6861.1720165962,"source":"CELESTRAK","updated_at":"2026-09-21T09:00:35.970921Z"}}}